Kezdőlap
METAR-TAF:

METAR-TAF

Repülőterek :

Marshalltown Municipal Airport

Marshalltown, Iowa, Amerikai Egyesült Államok

földrajzi szélesség: 42-06-38N, földrajzi hosszúság: 092-54-58W, magasság: 296 m

Jelenlegi meteorológiai megfigyelések

A jelentés 20 perccel ezelõtt készült, 11:53 UTC
Szélcsend
Hőmérséklet -3°C
Páratartalom 93%
Légköri nyomás 1017 hPa
Látótávolság: 11.3 km
Derült ég

METAR: KMIW 231153Z AUTO 00000KT 7SM CLR M03/M04 A3004 RMK AO2 SLP184 I1000 I6002 T10331044 10000 21033 53004

Idő: 07:13 (12:13 UTC)


TAF: hiányzik

Meteorológiai megfigyelések és előrejelzések több, mint 4000 repülőtéren (METAR és TAF jelentéseket).

A térképen piros és sárga pontok jelzik az elérhető meteorológiai állomásokat.

Mozgassa az egeret a pont fölött, hogy megjelenjen az állomás neve.

Azután kattintson az időjárási megfigyelések és előrejelzések megtekintéséhez.

A térkép megváltoztatása: kattintson a fekete keresztel jelölt zöld gombra ráközelítéshez, a vonallal jelölt zöld gombra távolításhoz, vagy a zöld nyilakra a szomszédos térképek eléréséhez.


METAR-TAF: